Find Local Weather

World > North America > United States > Kentucky

Louisville, Kentucky Regional Weather

Lat: 38.22N, Lon: 85.74W
Wx Zone: KYZ030
Feedback
Expires:201805230000;;375613
ASUS43 KLMK 222310
RWRKY 
KENTUCKY REGIONAL WEATHER ROUNDUP
NATIONAL WEATHER SERVICE LOUISVILLE KY
700 PM EDT TUE MAY 22 2018

NOTE "FAIR" INDICATES FEW OR NO CLOUDS BELOW 12,000 FEET
WITH NO SIGNIFICANT WEATHER AND/OR OBSTRUCTIONS TO VISIBILITY.


KYZ024-025-028>034-038-045-046-053-230000-
NORTH CENTRAL KENTUCKY
  
CITY           SKY/WX    TMP DP  RH WIND       PRES   REMARKS
LOUISVILLE/SDF FAIR      84  69  60 SW12G18   29.97R                  
LOUISVILLE/LOU FAIR      83  71  67 S12       29.97S                  
FORT KNOX      FAIR      79  70  73 S5        30.00S                  
$$


SKY/WX - Weather  TMP - Temperature  DP - Dewpoint  RH - Relative Humidity
WIND - Wind Direction/Speed PRES - Barometric Pressure